[[{"header":{"parameterUnit":"m.s-1","parameterCategory":1,"la1":30.2991,"la2":30.254,"lo1":-89.0895,"lo2":-89.0444,"dy":0.0017,"dx":0.0017,"nx":28,"ny":28,"refTime":"2023-10-16T03:00:00:Z","depth":0,"parameterNumber":2,"parameterNumberName":"U-component_of_WINDS"},"data":[0,0,0,0,0,0,0,0,0,0,0,0,0,0,0,0,0,0,0,0,0,0,0,0,0,0,0,0,0,0,0,0,0,0,0,0,0,0,0,0,0,0,0,0,0,0,0,0,0,0,0,0,0,0,0,0,0,0,1.3902,1.3901,0,1.3833,1.3832,1.3831,1.3802,1.3803,1.3803,1.3803,1.3727,1.3725,1.3723,0,0,0,0,0,0,0,0,0,0,0,0,0,1.4005,1.4003,1.3902,1.3901,1.39,1.3833,1.3832,1.3831,1.3802,1.3803,1.3803,1.3803,1.3728,1.3725,1.3723,0,0,0,0,0,0,0,0,0,0,0,0,0,1.395,1.4003,1.3902,1.3878,1.3875,1.3833,1.3832,1.3831,1.3802,1.3803,1.3803,1.3803,1.3729,1.3726,1.3722,1.3698,0,0,1.3713,1.3711,0,0,0,0,0,0,0,0,1.3954,1.3947,1.3883,1.388,1.3876,1.3827,1.384,1.3786,1.3802,1.383,1.3803,1.3803,1.376,1.3754,1.374,1.3694,1.3691,1.3712,1.371,1.3709,1.3708,0,0,0,0,0,0,0,1.3957,1.3949,1.3874,1.3882,1.3878,1.3869,1.3862,1.383,1.3794,1.3828,1.3825,1.3818,1.3758,1.3744,1.3738,1.369,1.3712,1.3709,1.3707,1.3706,1.3618,1.3617,0,0,0,0,0,0,1.3966,1.3953,1.3877,1.3872,1.3917,1.3867,1.3859,1.3842,1.3795,1.3788,1.3818,1.3817,1.3749,1.3742,1.3736,1.3702,1.3709,1.3706,1.3704,1.3618,1.3617,1.3617,0,0,0,0,0,0,1.3968,1.3959,1.3879,1.3912,1.3901,1.3865,1.3847,1.3841,1.3826,1.3787,1.378,1.381,1.3749,1.374,1.3707,1.3699,1.3704,1.3701,1.3618,1.3618,1.3617,1.3636,0,0,0,0,0,0,1.3971,1.396,1.3952,1.3912,1.39,1.3854,1.3846,1.3839,1.3821,1.3819,1.3778,1.3771,1.3748,1.3712,1.3704,1.3695,1.3699,1.3619,1.3618,1.3617,1.3636,1.3636,1.3636,0,0,0,0,0,1.3975,1.3959,1.3951,1.3942,1.3888,1.3853,1.3846,1.3822,1.3821,1.3811,1.3785,1.3772,1.3702,1.3709,1.37,1.3689,1.3619,1.3618,1.3617,1.3636,1.3636,1.3636,0,0,0,0,0,0,1.3997,1.3953,1.3944,1.3916,1.3889,1.3849,1.3836,1.3823,1.3795,1.3794,1.3764,1.3754,1.3724,1.3703,1.3712,1.3662,1.3659,1.3656,1.3676,1.3676,1.3677,1.3682,1.3696,0,0,0,0,0,1.3999,1.3976,1.3938,1.3916,1.3903,1.3872,1.3856,1.384,1.381,1.3798,1.377,1.374,1.3711,1.3693,1.3664,1.3633,1.3622,1.3621,1.3621,1.3622,1.3619,1.36,1.3598,1.3614,1.3614,1.3614,0,0,1.4002,1.3975,1.3962,1.392,1.3897,1.3873,1.3863,1.3837,1.3818,1.3793,1.3761,1.3739,1.3704,1.3672,1.3656,1.3654,1.3612,1.362,1.3621,1.3618,1.3599,1.3597,1.3596,1.3613,1.3613,1.3614,0,0,1.3995,1.3973,1.3952,1.3929,1.3895,1.3874,1.3869,1.3831,1.3816,1.3784,1.3765,1.374,1.3691,1.3667,1.3648,1.363,1.3616,1.3622,1.3622,1.3604,1.3602,1.3601,1.3594,1.3591,1.3619,1.3619,1.362,0,1.4003,1.3966,1.3942,1.3918,1.3899,1.3877,1.3854,1.3833,1.3791,1.3778,1.3776,1.3713,1.3688,1.3649,1.3645,1.3631,1.3622,1.3626,1.3605,1.3603,1.3602,1.3594,1.3591,1.362,1.362,1.362,1.362,0,1.3977,1.3951,1.3938,1.3899,1.3879,1.3855,1.3826,1.3808,1.3793,1.3772,1.3738,1.3707,1.3671,1.366,1.3645,1.3619,1.3618,1.3611,1.3608,1.3601,1.3594,1.3591,1.3621,1.3621,1.3621,1.3621,0,0,1.3982,1.393,1.3925,1.3907,1.3867,1.3846,1.3821,1.3787,1.3771,1.3743,1.372,1.3678,1.3671,1.365,1.3632,1.3616,1.3602,1.361,1.3609,1.3609,1.3569,1.3574,1.3571,1.3593,1.3592,1.3592,1.3572,0,1.3968,1.3924,1.3901,1.3865,1.3841,1.3819,1.3797,1.3769,1.3748,1.3723,1.3699,1.367,1.3664,1.3651,1.3634,1.3608,1.3594,1.3609,1.3569,1.3568,1.3578,1.3567,1.3573,1.3555,1.3569,1.3568,1.3568,0,1.3947,1.392,1.3882,1.3845,1.3833,1.3814,1.378,1.3757,1.3724,1.371,1.3686,1.3668,1.3639,1.3638,1.3596,1.3607,1.3589,1.3574,1.3572,1.3567,1.3567,1.356,1.3549,1.3546,1.3563,1.3563,1.3564,0,1.3954,1.3907,1.3878,1.3863,1.3819,1.3805,1.3786,1.3754,1.3735,1.3705,1.3692,1.3658,1.364,1.3613,1.3586,1.3589,1.3546,1.3544,1.3532,1.3533,1.3523,1.3524,1.3508,1.3514,1.3514,1.3514,1.3514,0,1.3941,1.3918,1.388,1.3863,1.3836,1.3809,1.3783,1.3762,1.3733,1.3709,1.3688,1.3666,1.3632,1.3605,1.3584,1.3551,1.3543,1.3529,1.3524,1.3531,1.3532,1.3518,1.3518,1.3513,1.3513,1.3514,1.3514,0,1.3943,1.3917,1.3884,1.3845,1.3835,1.3817,1.3782,1.3763,1.3741,1.3711,1.3702,1.3667,1.3634,1.3605,1.3561,1.3546,1.3513,1.3506,1.3524,1.3521,1.351,1.3511,1.3483,1.3478,1.3489,1.3489,1.3489,0,1.3937,1.3919,1.3878,1.3861,1.3843,1.3816,1.3796,1.3768,1.3748,1.3709,1.3694,1.366,1.3631,1.3579,1.3549,1.3514,1.3506,1.3499,1.3501,1.3508,1.3504,1.3506,1.3503,1.3499,1.3499,1.3499,1.3499,0,1.3927,1.3915,1.3888,1.3857,1.3834,1.3807,1.378,1.3767,1.3734,1.3712,1.3679,1.3656,1.3612,1.3577,1.3539,1.3517,1.3502,1.3499,1.3494,1.35,1.3511,1.3504,1.3523,1.3499,1.3499,1.3499,1.3499,1.3499,1.3924,1.3907,1.3875,1.3845,1.3822,1.3797,1.3777,1.3752,1.3724,1.3687,1.3672,1.3637,1.3603,1.3551,1.3529,1.3501,1.3498,1.3491,1.3489,1.3488,1.3488,1.3516,1.3494,1.3494,1.3494,1.3493,1.3493,0,1.3912,1.3891,1.3864,1.3827,1.3803,1.3792,1.3761,1.3741,1.3711,1.3682,1.3654,1.3615,1.3581,1.3548,1.3512,1.3495,1.3487,1.3486,1.3487,1.3481,1.3494,1.3501,1.3493,1.3493,1.3493,1.3493,1.3493,1.3493,1.3904,1.3873,1.3857,1.3814,1.3792,1.376,1.3743,1.3718,1.3694,1.3652,1.3624,1.3603,1.3571,1.3533,1.3501,1.3492,1.3479,1.348,1.3469,1.348,1.3481,1.3481,1.3488,1.3478,1.3478,1.3458,1.3458,1.3458]},{"header":{"parameterUnit":"m.s-1","parameterCategory":1,"la1":30.2991,"la2":30.254,"lo1":-89.0895,"lo2":-89.0444,"dy":0.0017,"dx":0.0017,"nx":28,"ny":28,"refTime":"2023-10-16T03:00:00:Z","depth":0,"parameterNumber":3,"parameterNumberName":"V-component_of_WINDS"},"data":[0,0,0,0,0,0,0,0,0,0,0,0,0,0,0,0,0,0,0,0,0,0,0,0,0,0,0,0,0,0,0,0,0,0,0,0,0,0,0,0,0,0,0,0,0,0,0,0,0,0,0,0,0,0,0,0,0,0,-4.4855,-4.4857,0,-4.5019,-4.5021,-4.5023,-4.4973,-4.4969,-4.4966,-4.4963,-4.5126,-4.5134,-4.5141,0,0,0,0,0,0,0,0,0,0,0,0,0,-4.4494,-4.4501,-4.4855,-4.4857,-4.4859,-4.5019,-4.5021,-4.5023,-4.4973,-4.4969,-4.4965,-4.4961,-4.5124,-4.5133,-4.5142,0,0,0,0,0,0,0,0,0,0,0,0,0,-4.4654,-4.4503,-4.4855,-4.4854,-4.4855,-4.5018,-4.5021,-4.5024,-4.4974,-4.4969,-4.4964,-4.4959,-4.5121,-4.5132,-4.5143,-4.5316,0,0,-4.5178,-4.5182,0,0,0,0,0,0,0,0,-4.4645,-4.4667,-4.4852,-4.4854,-4.4856,-4.497,-4.4954,-4.5122,-4.4976,-4.4929,-4.4963,-4.4957,-4.5078,-4.5093,-4.5135,-4.5323,-4.533,-4.5179,-4.5185,-4.519,-4.5194,0,0,0,0,0,0,0,-4.4634,-4.466,-4.492,-4.4854,-4.4857,-4.4843,-4.486,-4.4985,-4.503,-4.4933,-4.4929,-4.495,-4.5078,-4.5124,-4.5138,-4.5333,-4.5178,-4.5188,-4.5195,-4.52,-4.5671,-4.5676,0,0,0,0,0,0,-4.4622,-4.4651,-4.4914,-4.4925,-4.4736,-4.4854,-4.4873,-4.4939,-4.5029,-4.5038,-4.4954,-4.4947,-4.5107,-4.5125,-4.5144,-4.5352,-4.519,-4.5201,-4.5207,-4.5665,-4.5672,-4.5678,0,0,0,0,0,0,-4.4614,-4.4646,-4.4908,-4.4787,-4.4819,-4.4866,-4.494,-4.4945,-4.499,-4.5045,-4.5052,-4.4993,-4.5104,-4.5128,-4.5274,-4.5357,-4.5206,-4.5216,-4.5658,-4.5667,-4.5675,-4.5769,0,0,0,0,0,0,-4.4604,-4.4644,-4.4711,-4.4789,-4.4826,-4.5037,-4.4945,-4.4952,-4.501,-4.5003,-4.5083,-4.5091,-4.5102,-4.5257,-4.5285,-4.537,-4.5225,-4.5651,-4.5662,-4.5672,-4.5759,-4.578,-4.5798,0,0,0,0,0,-4.4592,-4.473,-4.4714,-4.4747,-4.4911,-4.5042,-4.5063,-4.5073,-4.5017,-4.5085,-4.512,-4.5089,-4.5343,-4.5272,-4.5303,-4.5393,-4.5646,-4.5659,-4.5671,-4.575,-4.5776,-4.5798,0,0,0,0,0,0,-4.4659,-4.474,-4.4724,-4.4892,-4.4961,-4.5033,-4.5118,-4.51,-4.5184,-4.5173,-4.5181,-4.5199,-4.5349,-4.5385,-4.5305,-4.5564,-4.5486,-4.5506,-4.5535,-4.556,-4.5579,-4.5568,-4.5234,0,0,0,0,0,-4.4694,-4.4794,-4.4859,-4.5001,-4.5036,-4.5072,-4.5129,-4.5131,-4.5201,-4.523,-4.5275,-4.5344,-4.5439,-4.5501,-4.5592,-4.5764,-4.578,-4.584,-4.586,-4.5876,-4.5893,-4.5986,-4.6013,-4.572,-4.572,-4.572,0,0,-4.4766,-4.4823,-4.4885,-4.5016,-4.5069,-4.5172,-4.5096,-4.5208,-4.5284,-4.5246,-4.5387,-4.5423,-4.5499,-4.5659,-4.5732,-4.5694,-4.5977,-4.5892,-4.5904,-4.5913,-4.6002,-4.6029,-4.6054,-4.5729,-4.5727,-4.5726,0,0,-4.495,-4.5004,-4.5128,-4.5183,-4.5265,-4.5288,-4.5317,-4.5393,-4.5416,-4.5558,-4.5531,-4.5621,-4.5785,-4.584,-4.589,-4.6095,-4.607,-4.6124,-4.6226,-4.6317,-4.634,-4.6361,-4.6434,-4.646,-4.6141,-4.6141,-4.6141,0,-4.5029,-4.5185,-4.5194,-4.5308,-4.5366,-4.5338,-4.5463,-4.5515,-4.5622,-4.5662,-4.5618,-4.5824,-4.5873,-4.6045,-4.6096,-4.6137,-4.617,-4.6115,-4.6336,-4.6357,-4.6376,-4.6446,-4.6474,-4.6147,-4.6146,-4.6146,-4.6145,0,-4.5278,-4.5386,-4.5476,-4.5582,-4.5649,-4.5768,-4.5794,-4.5861,-4.5857,-4.5884,-4.6028,-4.6086,-4.6188,-4.6229,-4.6225,-4.6401,-4.6375,-4.6334,-4.6256,-4.641,-4.6476,-4.6503,-4.6156,-4.6154,-4.6152,-4.615,0,0,-4.551,-4.5619,-4.5652,-4.57,-4.5788,-4.5871,-4.5988,-4.6089,-4.6146,-4.622,-4.6318,-4.6458,-4.6421,-4.6477,-4.6479,-4.6559,-4.6717,-4.6508,-4.651,-4.6545,-4.6914,-4.6944,-4.6975,-4.6701,-4.6706,-4.671,-4.6907,0,-4.5702,-4.591,-4.5921,-4.611,-4.6209,-4.6183,-4.6285,-4.6349,-4.6377,-4.6464,-4.6493,-4.6592,-4.6536,-4.657,-4.6647,-4.6682,-4.6791,-4.6667,-4.6791,-4.6795,-4.6773,-4.7009,-4.7042,-4.7226,-4.6933,-4.6937,-4.694,0,-4.5954,-4.6038,-4.6237,-4.6311,-4.6352,-4.6444,-4.6538,-4.6621,-4.6693,-4.6707,-4.6771,-4.6762,-4.688,-4.6798,-4.696,-4.6876,-4.6927,-4.6951,-4.6958,-4.697,-4.6878,-4.7028,-4.7285,-4.7312,-4.6981,-4.6978,-4.6975,0,-4.6104,-4.6266,-4.6406,-4.6447,-4.6537,-4.6602,-4.6642,-4.6709,-4.6769,-4.6849,-4.6888,-4.6981,-4.7032,-4.7104,-4.7119,-4.7058,-4.7282,-4.7201,-4.7297,-4.7296,-4.7345,-4.7342,-4.7614,-4.7378,-4.7377,-4.7377,-4.7376,0,-4.6318,-4.644,-4.6474,-4.6561,-4.6697,-4.6707,-4.6841,-4.6876,-4.6936,-4.7028,-4.701,-4.7095,-4.7111,-4.7199,-4.7212,-4.7345,-4.7368,-4.7382,-4.7384,-4.7384,-4.7382,-4.7418,-4.7406,-4.7384,-4.7383,-4.7381,-4.738,0,-4.6508,-4.6536,-4.6687,-4.676,-4.6781,-4.6878,-4.6939,-4.7021,-4.7046,-4.7162,-4.719,-4.7229,-4.7333,-4.7355,-4.7478,-4.7486,-4.7644,-4.7633,-4.762,-4.7619,-4.7714,-4.7705,-4.8019,-4.806,-4.7796,-4.7799,-4.7801,0,-4.6643,-4.6737,-4.682,-4.6881,-4.6924,-4.7022,-4.7083,-4.7097,-4.7161,-4.725,-4.7321,-4.7423,-4.7505,-4.7671,-4.771,-4.7803,-4.7794,-4.7898,-4.7808,-4.7805,-4.7796,-4.7791,-4.78,-4.7915,-4.7918,-4.792,-4.7922,0,-4.688,-4.6889,-4.6979,-4.7074,-4.7148,-4.7223,-4.7294,-4.7344,-4.7367,-4.744,-4.7547,-4.7611,-4.7736,-4.7837,-4.7931,-4.797,-4.795,-4.795,-4.7977,-4.7978,-4.7967,-4.7975,-4.7667,-4.7943,-4.7941,-4.7939,-4.7938,-4.7937,-4.7047,-4.7129,-4.7201,-4.7301,-4.7356,-4.7423,-4.7504,-4.754,-4.7629,-4.7734,-4.7735,-4.7851,-4.7919,-4.8043,-4.8088,-4.8178,-4.8146,-4.8185,-4.8195,-4.8205,-4.8214,-4.7953,-4.8195,-4.8194,-4.8194,-4.8193,-4.8193,0,-4.7283,-4.7327,-4.742,-4.7521,-4.76,-4.7575,-4.7653,-4.772,-4.7823,-4.7889,-4.797,-4.8092,-4.819,-4.8236,-4.8332,-4.8395,-4.8389,-4.842,-4.8416,-4.8425,-4.8237,-4.8204,-4.8424,-4.8424,-4.8424,-4.8424,-4.8424,-4.8424,-4.7415,-4.7553,-4.757,-4.7735,-4.7778,-4.7893,-4.7939,-4.8,-4.8053,-4.8191,-4.8272,-4.8302,-4.836,-4.846,-4.8548,-4.8559,-4.8595,-4.8632,-4.8638,-4.8462,-4.8438,-4.8416,-4.8385,-4.8639,-4.864,-4.8819,-4.8821,-4.8822]}]]